Weather History for Eastman, GA

Change the Weather History Date:

Friday, November 9, 2012

  Actual Average Record
Temperature  
Mean Temperature 52 °F -  
Max Temperature 72 °F 70 °F 73 °F (2013)
Min Temperature 31 °F 45 °F 36 °F (2013)
Degree Days  
Heating Degree Days 14    
Growing Degree Days 2 (Base 50)    
Moisture  
Dew Point 33 °F    
Average Humidity 68    
Maximum Humidity 99    
Minimum Humidity 15    
Precipitation  
Precipitation 0.00 in - - ()
Sea Level Pressure  
Sea Level Pressure 30.26 in    
Wind  
Wind Speed 1 mph ()    
Max Wind Speed 6 mph    
Max Gust Speed -    
Visibility 8.9 miles    
Events      
Averages and records for this station are not official NWS values.
T = Trace of Precipitation, MM = Missing Value Source: Averaged Metar Reports

Daily Weather History Graph

Daily Weather History Graph

Search for Another Location

Airport:

Trip Planner

Search our weather history database for the weather conditions in past years. The results will help you decide how hot, cold, wet, or windy it might be!

Date:

Astronomy

Nov. 09, 2012 Rise Set
Actual Time 6:56 AM EST 5:35 PM EST
Civil Twilight 6:31 AM EST 6:01 PM EST
Nautical Twilight 6:01 AM EST 6:30 PM EST
Astronomical Twilight 5:32 AM EST 6:59 PM EST
Moon 2:10 AM EST (11/9) 2:34 PM EST (11/9)
Length of Visible Light 11h 30m
Length of Day
10h 38m
Waning Crescent, 23% of the Moon is Illuminated
Nov 9
Waning Crescent
Nov 13
New
Nov 20
First Quarter
Nov 28
Full
Dec 6
Last Quarter

Hourly Weather History & Observations

Time (EST) Temp. Dew Point Humidity Pressure Visibility Wind Dir Wind Speed Gust Speed Precip Events Conditions
12:15 AM 37.2 °F 36.0 °F 95% 30.22 in 5.0 mi Calm Calm - N/A   Clear
12:35 AM 37.0 °F 36.0 °F 96% 30.22 in 7.0 mi Calm Calm - N/A   Clear
12:55 AM 36.5 °F 35.4 °F 96% 30.22 in 7.0 mi Calm Calm - N/A   Clear
1:15 AM 36.0 °F 35.1 °F 97% 30.22 in 7.0 mi Calm Calm - N/A   Clear
1:35 AM 35.4 °F 34.5 °F 97% 30.22 in 4.0 mi Calm Calm - N/A   Clear
1:55 AM 34.7 °F 33.8 °F 97% 30.22 in 7.0 mi Calm Calm - N/A   Clear
2:15 AM 35.8 °F 34.9 °F 97% 30.22 in 10.0 mi Calm Calm - N/A   Clear
2:35 AM 34.7 °F 33.6 °F 96% 30.22 in 4.0 mi Calm Calm - N/A   Clear
2:55 AM 33.8 °F 32.9 °F 96% 30.22 in 7.0 mi Calm Calm - N/A   Clear
3:15 AM 33.1 °F 32.2 °F 96% 30.22 in 4.0 mi Calm Calm - N/A   Clear
3:35 AM 33.3 °F 32.7 °F 98% 30.23 in 5.0 mi Calm Calm - N/A   Clear
3:55 AM 33.1 °F 32.0 °F 96% 30.23 in 7.0 mi Calm Calm - N/A   Clear
4:15 AM 32.9 °F 32.0 °F 96% 30.23 in 10.0 mi Calm Calm - N/A   Clear
4:35 AM 32.7 °F 32.0 °F 97% 30.23 in 7.0 mi Calm Calm - N/A   Clear
4:55 AM 32.0 °F 31.8 °F 99% 30.24 in 7.0 mi Calm Calm - N/A   Clear
5:15 AM 32.0 °F 31.3 °F 97% 30.25 in 7.0 mi Calm Calm - N/A   Clear
5:35 AM 32.5 °F 31.8 °F 97% 30.25 in 5.0 mi Calm Calm - N/A   Clear
5:55 AM 32.0 °F 31.6 °F 99% 30.26 in 7.0 mi Calm Calm - N/A   Clear
6:15 AM 31.8 °F 31.1 °F 97% 30.27 in 7.0 mi Calm Calm - N/A   Clear
6:35 AM 31.3 °F 30.6 °F 97% 30.27 in 7.0 mi Calm Calm - N/A   Clear
6:55 AM 31.5 °F 30.7 °F 97% 30.27 in 7.0 mi Calm Calm - N/A   Clear
7:15 AM 31.1 °F 30.2 °F 96% 30.29 in 7.0 mi Calm Calm - N/A   Clear
7:35 AM 32.0 °F 31.5 °F 98% 30.30 in 10.0 mi Calm Calm - N/A   Clear
7:55 AM 34.2 °F 32.9 °F 95% 30.30 in 10.0 mi Calm Calm - N/A   Clear
8:15 AM 37.6 °F 36.1 °F 95% 30.31 in 10.0 mi Calm Calm - N/A   Clear
8:35 AM 42.1 °F 38.8 °F 88% 30.31 in 10.0 mi Calm Calm - N/A   Clear
8:55 AM 45.3 °F 39.7 °F 81% 30.32 in 10.0 mi Calm Calm - N/A   Clear
9:15 AM 48.0 °F 40.5 °F 75% 30.32 in 10.0 mi NNW 3.5 mph - N/A   Clear
9:55 AM 54.1 °F 41.0 °F 61% 30.33 in 10.0 mi Calm Calm - N/A   Clear
10:15 AM 57.2 °F 39.2 °F 51% 30.33 in 10.0 mi Calm Calm - N/A   Clear
10:35 AM 59.7 °F 38.7 °F 46% 30.33 in 10.0 mi Calm Calm - N/A   Clear
10:55 AM 61.5 °F 37.8 °F 41% 30.33 in 10.0 mi Calm Calm - N/A   Clear
11:15 AM 63.7 °F 36.1 °F 36% 30.33 in 10.0 mi North 4.6 mph - N/A   Clear
11:35 AM 64.9 °F 31.3 °F 28% 30.32 in 10.0 mi NW 4.6 mph - N/A   Clear
11:55 AM 67.3 °F 30.7 °F 26% 30.30 in 10.0 mi NW 4.6 mph - N/A   Clear
12:15 PM 67.3 °F 29.8 °F 25% 30.30 in 10.0 mi WSW 4.6 mph - N/A   Clear
12:35 PM 68.4 °F 28.9 °F 23% 30.28 in 10.0 mi NW 4.6 mph - N/A   Clear
12:55 PM 69.1 °F 28.4 °F 22% 30.28 in 10.0 mi NNW 3.5 mph - N/A   Clear
1:15 PM 70.2 °F 25.0 °F 18% 30.27 in 10.0 mi Calm Calm - N/A   Clear
1:35 PM 70.2 °F 25.7 °F 19% 30.26 in 10.0 mi North 3.5 mph - N/A   Clear
1:55 PM 71.1 °F 25.3 °F 18% 30.25 in 10.0 mi West 4.6 mph - N/A   Clear
2:15 PM 71.1 °F 25.2 °F 18% 30.25 in 10.0 mi NNW 5.8 mph - N/A   Clear
2:35 PM 71.2 °F 21.9 °F 16% 30.24 in 10.0 mi North 3.5 mph - N/A   Clear
2:55 PM 72.3 °F 22.3 °F 15% 30.23 in 10.0 mi NNW 3.5 mph - N/A   Clear
3:15 PM 71.8 °F 20.8 °F 15% 30.23 in 10.0 mi Calm Calm - N/A   Clear
3:35 PM 72.0 °F 24.6 °F 17% 30.23 in 10.0 mi NNE 3.5 mph - N/A   Clear
3:55 PM 72.0 °F 24.8 °F 17% 30.23 in 10.0 mi Calm Calm - N/A   Clear
4:15 PM 71.1 °F 22.1 °F 16% 30.23 in 10.0 mi WNW 3.5 mph - N/A   Clear
4:35 PM 71.1 °F 23.2 °F 17% 30.23 in 10.0 mi Calm Calm - N/A   Clear
4:55 PM 69.1 °F 28.8 °F 22% 30.23 in 10.0 mi Calm Calm - N/A   Clear
5:15 PM 66.4 °F 31.3 °F 27% 30.23 in 10.0 mi Calm Calm - N/A   Clear
5:35 PM 64.0 °F 29.3 °F 27% 30.23 in 10.0 mi Calm Calm - N/A   Clear
5:55 PM 57.6 °F 39.0 °F 50% 30.24 in 10.0 mi Calm Calm - N/A   Clear
6:15 PM 54.9 °F 36.0 °F 49% 30.25 in 10.0 mi Calm Calm - N/A   Clear
6:35 PM 52.2 °F 40.6 °F 65% 30.25 in 10.0 mi Calm Calm - N/A   Clear
6:55 PM 51.4 °F 40.6 °F 67% 30.25 in 10.0 mi Calm Calm - N/A   Clear
7:15 PM 49.1 °F 40.8 °F 73% 30.25 in 10.0 mi Calm Calm - N/A   Clear
7:35 PM 47.7 °F 40.3 °F 76% 30.26 in 10.0 mi Calm Calm - N/A   Clear
7:55 PM 46.0 °F 40.6 °F 81% 30.26 in 10.0 mi Calm Calm - N/A   Clear
8:15 PM 45.5 °F 40.5 °F 83% 30.26 in 10.0 mi Calm Calm - N/A   Clear
8:35 PM 44.2 °F 39.7 °F 84% 30.27 in 10.0 mi Calm Calm - N/A   Clear
8:55 PM 43.9 °F 40.3 °F 87% 30.27 in 10.0 mi Calm Calm - N/A   Clear
9:15 PM 43.7 °F 39.9 °F 87% 30.28 in 10.0 mi Calm Calm - N/A   Clear
9:35 PM 41.9 °F 39.4 °F 91% 30.28 in 10.0 mi Calm Calm - N/A   Clear
9:55 PM 41.7 °F 39.2 °F 91% 30.29 in 10.0 mi Calm Calm - N/A   Clear
10:15 PM 40.1 °F 38.1 °F 93% 30.30 in 10.0 mi Calm Calm - N/A   Clear
10:35 PM 40.1 °F 38.3 °F 93% 30.30 in 10.0 mi Calm Calm - N/A   Clear
10:55 PM 40.1 °F 38.3 °F 93% 30.30 in 10.0 mi Calm Calm - N/A   Clear
11:15 PM 39.4 °F 37.6 °F 93% 30.29 in 10.0 mi Calm Calm - N/A   Clear
11:35 PM 38.8 °F 37.2 °F 94% 30.29 in 7.0 mi Calm Calm - N/A   Clear
11:55 PM 37.9 °F 36.5 °F 95% 30.30 in 10.0 mi Calm Calm - N/A   Clear